Weather History for KTTA - July, 2013

Change the Weather History Date:

Tuesday, July 30, 2013

  Actual Average (KRDU) Record (KRDU)
Temperature  
Mean Temperature 73 °F 80 °F  
Max Temperature 86 °F 90 °F 101 °F (1953)
Min Temperature 60 °F 70 °F 56 °F (1946)
Degree Days  
Heating Degree Days 0 0  
Month to date heating degree days 0  
Since 1 June heating degree days 4  
Since 1 July heating degree days 0  
Cooling Degree Days 8 15  
Month to date cooling degree days 450  
Year to date cooling degree days 1006  
Since 1 June cooling degree days 797  
Growing Degree Days 23 (Base 50)    
Moisture  
Dew Point 65 °F    
Average Humidity 76    
Maximum Humidity 99    
Minimum Humidity 44    
Precipitation  
Precipitation 0.00 in 0.17 in 3.70 in (1888)
Month to date precipitation 4.57  
Year to date precipitation 25.12  
Sea Level Pressure  
Sea Level Pressure 30.18 in    
Wind  
Wind Speed 0 mph (NE)    
Max Wind Speed 5 mph    
Max Gust Speed -    
Visibility 7 miles    
Events Fog    
T = Trace of Precipitation, MM = Missing Value Source: NWS Daily Summary

Daily Weather History Graph

Daily Weather History Graph

Search for Another Location

Airport or City:

Trip Planner

Search our weather history database for the weather conditions in past years. The results will help you decide how hot, cold, wet, or windy it might be!

Date:

Astronomy

Jul. 30, 2013 Rise Set
Actual Time 6:23 AM EDT 8:21 PM EDT
Civil Twilight 5:55 AM EDT 8:50 PM EDT
Nautical Twilight 5:20 AM EDT 9:24 PM EDT
Astronomical Twilight 4:44 AM EDT 10:00 PM EDT
Moon 12:38 AM EDT (7/30) 2:41 PM EDT (7/30)
Length of Visible Light 14h 54m
Length of Day
13h 58m
Last Quarter, 41% of the Moon is Illuminated
Jul 30
Last Quarter
Aug 6
New
Aug 14
First Quarter
Aug 20
Full
Aug 28
Last Quarter

Hourly Weather History & Observations

Time (EDT) Temp. Heat Index Dew Point Humidity Pressure Visibility Wind Dir Wind Speed Gust Speed Precip Events Conditions
12:15 AM 68.2 °F - 66.7 °F 95% 30.16 in 1.8 mi Calm Calm - N/A   Mist
12:35 AM 68.4 °F - 67.1 °F 96% 30.17 in 4.0 mi Calm Calm - N/A   Clear
12:55 AM 67.5 °F - 66.2 °F 96% 30.17 in 2.5 mi Calm Calm - N/A   Mostly Cloudy
1:15 AM 67.5 °F - 66.4 °F 96% 30.17 in 5.0 mi Calm Calm - N/A   Scattered Clouds
1:35 AM 67.1 °F - 65.8 °F 96% 30.17 in 1.2 mi Calm Calm - N/A   Scattered Clouds
1:55 AM 66.4 °F - 65.5 °F 97% 30.17 in 3.0 mi Calm Calm - N/A   Clear
2:15 AM 66.6 °F - 65.7 °F 97% 30.17 in 0.5 mi Calm Calm - N/A Fog Fog
2:35 AM 66.0 °F - 65.1 °F 97% 30.17 in 2.5 mi Calm Calm - N/A   Clear
2:55 AM 65.3 °F - 64.4 °F 97% 30.17 in 1.0 mi Calm Calm - N/A   Mist
3:15 AM 65.1 °F - 64.4 °F 98% 30.17 in 0.5 mi Calm Calm - N/A Fog Fog
3:35 AM 64.4 °F - 63.7 °F 98% 30.16 in 0.5 mi Calm Calm - N/A Fog Fog
3:55 AM 63.7 °F - 63.0 °F 97% 30.16 in 4.0 mi Calm Calm - N/A   Clear
4:15 AM 63.5 °F - 62.6 °F 97% 30.16 in 2.5 mi Calm Calm - N/A   Clear
4:35 AM 62.6 °F - 62.1 °F 98% 30.17 in 1.5 mi Calm Calm - N/A   Mist
4:55 AM 62.6 °F - 61.9 °F 97% 30.17 in 1.2 mi Calm Calm - N/A   Mist
5:15 AM 62.2 °F - 61.7 °F 98% 30.17 in 0.5 mi Calm Calm - N/A Fog Fog
5:35 AM 61.9 °F - 61.3 °F 98% 30.18 in 4.0 mi Calm Calm - N/A   Clear
5:55 AM 61.2 °F - 60.6 °F 98% 30.18 in 5.0 mi Calm Calm - N/A   Clear
6:15 AM 60.8 °F - 60.1 °F 97% 30.19 in 5.0 mi Calm Calm - N/A   Clear
6:35 AM 61.0 °F - 60.4 °F 98% 30.20 in 5.0 mi Calm Calm - N/A   Clear
6:55 AM 61.5 °F - 61.2 °F 99% 30.21 in 7.0 mi Calm Calm - N/A   Clear
7:15 AM 61.9 °F - 61.2 °F 97% 30.21 in 4.0 mi Calm Calm - N/A   Clear
7:35 AM 63.5 °F - 62.8 °F 97% 30.21 in 4.0 mi Calm Calm - N/A   Clear
7:55 AM 65.3 °F - 64.4 °F 97% 30.22 in 7.0 mi Calm Calm - N/A   Clear
8:15 AM 67.3 °F - 64.4 °F 90% 30.22 in 10.0 mi Calm Calm - N/A   Clear
8:35 AM 70.2 °F - 63.5 °F 79% 30.23 in 10.0 mi NNE 3.5 mph - N/A   Clear
8:55 AM 70.9 °F - 64.0 °F 79% 30.23 in 10.0 mi Calm Calm - N/A   Clear
9:15 AM 70.9 °F - 64.0 °F 79% 30.22 in 10.0 mi Calm Calm - N/A   Clear
9:35 AM 72.1 °F - 64.4 °F 77% 30.22 in 10.0 mi Calm Calm - N/A   Clear
9:55 AM 72.9 °F - 63.7 °F 73% 30.22 in 10.0 mi NNE 3.5 mph - N/A   Clear
10:15 AM 74.3 °F - 63.0 °F 68% 30.22 in 10.0 mi Calm Calm - N/A   Clear
10:35 AM 76.3 °F - 63.7 °F 65% 30.22 in 10.0 mi NE 3.5 mph - N/A   Clear
10:55 AM 78.1 °F - 64.0 °F 62% 30.22 in 10.0 mi East 3.5 mph - N/A   Clear
11:15 AM 79.5 °F - 64.0 °F 59% 30.22 in 10.0 mi NNE 4.6 mph - N/A   Clear
11:35 AM 80.1 °F 81.6 °F 63.7 °F 57% 30.22 in 10.0 mi North 4.6 mph - N/A   Clear
11:55 AM 81.7 °F 82.6 °F 62.1 °F 51% 30.21 in 10.0 mi East 4.6 mph - N/A   Clear
12:15 PM 81.3 °F 82.2 °F 61.3 °F 51% 30.21 in 10.0 mi ENE 3.5 mph - N/A   Clear
12:55 PM 83.5 °F 83.6 °F 60.1 °F 45% 30.20 in 10.0 mi Calm Calm - N/A   Clear
1:15 PM 84.0 °F 84.5 °F 62.1 °F 47% 30.20 in 10.0 mi Calm Calm - N/A   Clear
1:35 PM 84.4 °F 85.0 °F 61.9 °F 47% 30.19 in 10.0 mi Calm Calm - N/A   Clear
1:55 PM 85.1 °F 85.7 °F 62.4 °F 46% 30.19 in 10.0 mi Calm Calm - N/A   Clear
2:15 PM 84.0 °F 84.5 °F 61.9 °F 47% 30.18 in 10.0 mi Calm Calm - N/A   Scattered Clouds
2:35 PM 85.3 °F 85.9 °F 62.6 °F 46% 30.17 in 10.0 mi Calm Calm - N/A   Scattered Clouds
2:55 PM 85.5 °F 85.7 °F 61.5 °F 44% 30.16 in 10.0 mi Calm Calm - N/A   Clear
3:15 PM 86.0 °F 86.3 °F 61.9 °F 44% 30.16 in 10.0 mi ESE 3.5 mph - N/A   Scattered Clouds
3:35 PM 84.6 °F 84.6 °F 60.3 °F 44% 30.15 in 10.0 mi Calm Calm - N/A   Scattered Clouds
3:55 PM 85.6 °F 86.3 °F 62.8 °F 46% 30.15 in 10.0 mi Calm Calm - N/A   Scattered Clouds
4:15 PM 86.0 °F 86.3 °F 62.1 °F 44% 30.15 in 10.0 mi Calm Calm - N/A   Overcast
4:35 PM 86.4 °F 86.8 °F 62.1 °F 44% 30.15 in 10.0 mi Calm Calm - N/A   Overcast
4:55 PM 86.0 °F 86.8 °F 63.0 °F 46% 30.15 in 10.0 mi Calm Calm - N/A   Overcast
5:15 PM 85.1 °F 86.4 °F 63.9 °F 49% 30.15 in 10.0 mi NE 3.5 mph - N/A   Mostly Cloudy
5:35 PM 84.4 °F 86.3 °F 65.5 °F 53% 30.15 in 10.0 mi Calm Calm - N/A   Scattered Clouds
5:55 PM 84.4 °F 85.2 °F 62.8 °F 48% 30.15 in 10.0 mi Calm Calm - N/A   Clear
6:15 PM 84.2 °F 85.8 °F 64.6 °F 52% 30.15 in 10.0 mi NNW 4.6 mph - N/A   Clear
6:35 PM 84.0 °F 84.7 °F 62.4 °F 48% 30.14 in 10.0 mi Calm Calm - N/A   Clear
6:55 PM 83.8 °F 85.1 °F 64.2 °F 51% 30.14 in 10.0 mi Calm Calm - N/A   Clear
7:15 PM 83.1 °F 85.4 °F 66.2 °F 57% 30.15 in 10.0 mi Calm Calm - N/A   Clear
7:35 PM 81.9 °F 84.8 °F 68.2 °F 63% 30.15 in 10.0 mi Calm Calm - N/A   Clear
7:55 PM 77.4 °F - 70.7 °F 80% 30.15 in 10.0 mi Calm Calm - N/A   Clear
8:15 PM 76.3 °F - 71.6 °F 85% 30.14 in 10.0 mi Calm Calm - N/A   Clear
8:35 PM 75.2 °F - 71.1 °F 87% 30.14 in 10.0 mi Calm Calm - N/A   Clear
8:55 PM 75.2 °F - 71.6 °F 89% 30.14 in 10.0 mi Calm Calm - N/A   Clear
9:15 PM 74.7 °F - 71.8 °F 91% 30.14 in 10.0 mi Calm Calm - N/A   Clear
9:35 PM 73.9 °F - 71.8 °F 93% 30.15 in 10.0 mi NNE 3.5 mph - N/A   Clear
9:55 PM 73.4 °F - 71.1 °F 92% 30.15 in 7.0 mi Calm Calm - N/A   Clear
10:15 PM 73.4 °F - 71.4 °F 93% 30.16 in 7.0 mi WSW 3.5 mph - N/A   Clear
10:35 PM 72.7 °F - 70.7 °F 93% 30.16 in 7.0 mi Calm Calm - N/A   Clear
10:55 PM 73.4 °F - 71.6 °F 94% 30.16 in 10.0 mi Calm Calm - N/A   Clear
11:15 PM 72.7 °F - 70.9 °F 94% 30.16 in 5.0 mi Calm Calm - N/A   Scattered Clouds
11:35 PM 72.5 °F - 70.7 °F 94% 30.16 in 7.0 mi Calm Calm - N/A   Clear
11:55 PM 72.0 °F - 70.3 °F 95% 30.15 in 7.0 mi Calm Calm - N/A   Clear